Regional Weather Roundup
Issued by NWS Spokane, WA

Home | Current Version | Previous Version | Text Only | Print | Product List | Glossary On
Versions: 1 2 3 4 5 6 7 8 9 10 11 12 13 14 15 16 17 18 19 20 21 22 23 24 25 26 27 28 29 30 31 32 33 34 35 36 37 38 39 40 41 42 43 44 45 46 47 48 49 50
000
NZUS01 KOTX 230910
RWROTX
EASTERN WASHINGTON/NORTHERN IDAHO ROUNDUP
NATIONAL WEATHER SERVICE, SPOKANE WA
200 AM PDT WED APR 23 2014

Note: "fair" indicated few or no clouds below 12,000 feet with no
significant weather and/or obstructions to visibility.

...NORTHEAST WASHINGTON AND NORTHERN IDAHO PANHANDLE...

CITY           SKY/WX    TMP DP  RH WIND       PRES   REMARKS
SPOKANE INTL   CLEAR     35  27  72 S12       29.82R WCI  27
SPOKANE DOWNTO CLEAR     38  27  64 S6        29.85R
COEUR D ALENE  CLEAR     36  28  75 S7        29.84R
DEER PARK      CLEAR     27  25  92 SE5       29.81S WCI  22
SANDPOINT      PTCLDY    34  34 100 S5        29.79R WCI  30

...SOUTHEAST WASHINGTON AND SOUTHERN IDAHO PANHANDLE...

CITY           SKY/WX    TMP DP  RH WIND       PRES   REMARKS
WALLA WALLA    MOCLDY    42  34  73 S9        29.92F
PULLMAN/MOSCOW CLEAR     38  30  73 SW15      29.89S
LEWISTON       CLOUDY    44  28  53 S8        29.90R

...COLUMBIA BASIN...

CITY           SKY/WX    TMP DP  RH WIND       PRES   REMARKS
EPHRATA        CLOUDY    40  32  73 SW7       29.82F
MOSES LAKE     CLOUDY    46  32  58 S8        29.85R
TRI CITIES     CLOUDY    47  36  65 S9        29.91S
HERMISTON      CLOUDY    44  36  73 S5        29.92F
PENDLETON      CLOUDY    39  33  79 S7        29.91F

...EAST SLOPES CASCADES...

CITY           SKY/WX    TMP DP  RH WIND       PRES   REMARKS
THE DALLES     CLOUDY    43  38  82 SE3       29.94F
YAKIMA         CLOUDY    44  34  67 W5        29.85S
ELLENSBURG     CLOUDY    35  31  85 NE3       29.84S
WENATCHEE      MOCLDY    43  28  55 CALM      29.82F
OMAK           MOCLDY    33  26  75 W6        29.81R WCI  28

...SOUTHERN BRITISH COLUMBIA...

CITY           SKY/WX    TMP DP  RH WIND       PRES   REMARKS
PENTICTON      PTCLDY    36  32  87 CALM      29.80S
CRANBROOK      MOCLDY    41  28  60 S15G23    29.64R

...WESTERN MONTANA...

CITY           SKY/WX    TMP DP  RH WIND       PRES   REMARKS
MISSOULA       CLOUDY    39  30  70 W7        29.80S

...NEIGHBORING CITIES...

CITY           SKY/WX    TMP DP  RH WIND       PRES   REMARKS
SEATTLE        CLOUDY    44  41  89 S13       29.89S
CALGARY        CLOUDY    43  39  87 S7        29.39S



USA.gov is the U.S. government's official web portal to all federal, state and local government web resources and services.